SWA2906 KSNA-KPHX

Flight info

Callsign SWA2906
Flight time 0h 59m
Altitude 33000
Route STAYY4 CNERY BLH HYDRR1
Aircraft B737/M-DE2GRSWYZ/LB1

Departure

Time 2026-05-07 21:21
Airport John Wayne Orange County International Airport (KSNA)

Arrival

Time 2026-05-07 22:21
Airport Phoenix Sky Harbor International Airport (KPHX)
Time Latitude Longitude Altitude Speed Heading
2026-05-07 20:34 33.67501 -117.86507 50 ft 0 kts 117°
2026-05-07 21:11 33.67501 -117.86508 50 ft 1 kts 117°
2026-05-07 21:11 33.67507 -117.86523 47 ft 3 kts 117°
2026-05-07 21:11 33.67515 -117.86540 44 ft 1 kts 117°
2026-05-07 21:15 33.67514 -117.86537 44 ft 1 kts 107°
2026-05-07 21:16 33.67518 -117.86529 49 ft 1 kts 58°
2026-05-07 21:16 33.67525 -117.86527 48 ft 2 kts 11°
2026-05-07 21:16 33.67555 -117.86534 50 ft 6 kts 348°
2026-05-07 21:16 33.67601 -117.86528 50 ft 8 kts 23°
2026-05-07 21:17 33.67657 -117.86494 50 ft 10 kts 27°
2026-05-07 21:17 33.67721 -117.86454 50 ft 10 kts 28°
2026-05-07 21:17 33.67782 -117.86414 50 ft 10 kts 28°
2026-05-07 21:17 33.67823 -117.86389 50 ft 10 kts 28°
2026-05-07 21:18 33.67887 -117.86348 50 ft 11 kts 28°
2026-05-07 21:18 33.67953 -117.86306 50 ft 10 kts 27°
2026-05-07 21:18 33.68010 -117.86271 49 ft 8 kts 26°
2026-05-07 21:18 33.68056 -117.86289 50 ft 7 kts 303°
2026-05-07 21:19 33.68078 -117.86339 48 ft 7 kts 298°
2026-05-07 21:19 33.68100 -117.86387 47 ft 6 kts 298°
2026-05-07 21:19 33.68113 -117.86417 49 ft 3 kts 298°
2026-05-07 21:19 33.68126 -117.86446 48 ft 6 kts 297°
2026-05-07 21:20 33.68150 -117.86504 47 ft 8 kts 285°
2026-05-07 21:20 33.68121 -117.86538 48 ft 5 kts 208°
2026-05-07 21:20 33.68025 -117.86599 49 ft 46 kts 207°
2026-05-07 21:20 33.67497 -117.86932 53 ft 123 kts 208°
2026-05-07 21:21 33.66595 -117.87497 408 ft 153 kts 205°
2026-05-07 21:21 33.65671 -117.87994 1385 ft 147 kts 201°
2026-05-07 21:21 33.64661 -117.88397 1830 ft 155 kts 198°
2026-05-07 21:21 33.63608 -117.88770 2069 ft 161 kts 198°
2026-05-07 21:22 33.62503 -117.89016 2381 ft 164 kts 182°
2026-05-07 21:22 33.61396 -117.89269 2715 ft 164 kts 214°
2026-05-07 21:22 33.60567 -117.90192 3153 ft 166 kts 218°
2026-05-07 21:22 33.59397 -117.90537 3647 ft 188 kts 175°
2026-05-07 21:23 33.58033 -117.90103 3902 ft 217 kts 163°
2026-05-07 21:23 33.56501 -117.89557 4091 ft 242 kts 161°
2026-05-07 21:23 33.54921 -117.88641 4299 ft 268 kts 152°
2026-05-07 21:23 33.53240 -117.87541 4886 ft 280 kts 153°
2026-05-07 21:24 33.51531 -117.86387 5670 ft 284 kts 144°
2026-05-07 21:24 33.50214 -117.84625 6531 ft 284 kts 119°
2026-05-07 21:24 33.49355 -117.82494 7418 ft 285 kts 113°
2026-05-07 21:24 33.48538 -117.80316 8285 ft 288 kts 112°
2026-05-07 21:25 33.47758 -117.78104 9266 ft 288 kts 104°
2026-05-07 21:25 33.47579 -117.75760 10212 ft 285 kts 84°
2026-05-07 21:25 33.47762 -117.73322 10719 ft 304 kts 83°
2026-05-07 21:25 33.48019 -117.70689 10926 ft 331 kts 78°
2026-05-07 21:26 33.48857 -117.68061 11397 ft 344 kts 61°
2026-05-07 21:26 33.50050 -117.65559 12202 ft 347 kts 59°
2026-05-07 21:26 33.51268 -117.63083 13042 ft 350 kts 59°
2026-05-07 21:26 33.52510 -117.60547 13873 ft 354 kts 60°
2026-05-07 21:27 33.53754 -117.57970 14633 ft 357 kts 60°
2026-05-07 21:27 33.54991 -117.55379 15421 ft 360 kts 60°
2026-05-07 21:27 33.56241 -117.52751 16209 ft 364 kts 60°
2026-05-07 21:27 33.57276 -117.49975 16955 ft 370 kts 75°
2026-05-07 21:28 33.57534 -117.46885 17752 ft 376 kts 91°
2026-05-07 21:28 33.57002 -117.43786 18423 ft 385 kts 106°
2026-05-07 21:28 33.56068 -117.40754 19050 ft 390 kts 109°
2026-05-07 21:28 33.55064 -117.37705 19657 ft 395 kts 109°
2026-05-07 21:29 33.54051 -117.34627 20295 ft 399 kts 109°
2026-05-07 21:29 33.53059 -117.31542 20937 ft 403 kts 108°
2026-05-07 21:29 33.52060 -117.28376 21537 ft 407 kts 108°
2026-05-07 21:29 33.51059 -117.25180 22112 ft 411 kts 108°
2026-05-07 21:30 33.50352 -117.21864 22636 ft 412 kts 92°
2026-05-07 21:30 33.50256 -117.18425 23270 ft 413 kts 88°
2026-05-07 21:30 33.50232 -117.14956 23789 ft 417 kts 88°
2026-05-07 21:30 33.50208 -117.11500 24257 ft 421 kts 88°
2026-05-07 21:31 33.50167 -117.07989 24754 ft 423 kts 89°
2026-05-07 21:31 33.50108 -117.04450 25253 ft 426 kts 89°
2026-05-07 21:31 33.50037 -117.00880 25708 ft 429 kts 89°
2026-05-07 21:31 33.49961 -116.97284 26175 ft 432 kts 89°
2026-05-07 21:32 33.49883 -116.93665 26637 ft 435 kts 89°
2026-05-07 21:32 33.49803 -116.90028 27069 ft 438 kts 89°
2026-05-07 21:32 33.49744 -116.86361 27490 ft 441 kts 88°
2026-05-07 21:32 33.49705 -116.82728 27893 ft 443 kts 88°
2026-05-07 21:33 33.49670 -116.78997 28298 ft 446 kts 88°
2026-05-07 21:33 33.49634 -116.75260 28724 ft 449 kts 88°
2026-05-07 21:33 33.49595 -116.71512 29127 ft 451 kts 88°
2026-05-07 21:33 33.49551 -116.67737 29566 ft 453 kts 88°
2026-05-07 21:34 33.49505 -116.63960 30105 ft 452 kts 88°
2026-05-07 21:34 33.49457 -116.60261 30642 ft 448 kts 88°
2026-05-07 21:34 33.49407 -116.56528 31237 ft 444 kts 88°
2026-05-07 21:34 33.49358 -116.52837 31765 ft 441 kts 88°
2026-05-07 21:35 33.49309 -116.49160 32222 ft 440 kts 88°
2026-05-07 21:35 33.49259 -116.45487 32654 ft 439 kts 88°
2026-05-07 21:35 33.49208 -116.41854 32919 ft 441 kts 88°
2026-05-07 21:35 33.49155 -116.38172 32896 ft 441 kts 88°
2026-05-07 21:36 33.49043 -116.30867 32906 ft 437 kts 88°
2026-05-07 21:36 33.48934 -116.23583 32892 ft 436 kts 88°
2026-05-07 21:37 33.48819 -116.16316 32901 ft 435 kts 88°
2026-05-07 21:37 33.48701 -116.09057 32893 ft 435 kts 88°
2026-05-07 21:38 33.48957 -116.01907 32886 ft 428 kts 72°
2026-05-07 21:38 33.50902 -115.95197 32901 ft 425 kts 67°
2026-05-07 21:39 33.52944 -115.88530 32899 ft 426 kts 68°
2026-05-07 21:39 33.54935 -115.81822 32905 ft 426 kts 68°
2026-05-07 21:40 33.56885 -115.75137 32907 ft 427 kts 68°
2026-05-07 21:40 33.58843 -115.68399 32918 ft 427 kts 68°
2026-05-07 21:41 33.60798 -115.61663 32919 ft 427 kts 68°
2026-05-07 21:41 33.61863 -115.54700 32940 ft 434 kts 87°
2026-05-07 21:42 33.61648 -115.47449 32930 ft 435 kts 89°
2026-05-07 21:42 33.61390 -115.40174 32922 ft 435 kts 89°
2026-05-07 21:43 33.61177 -115.32953 32918 ft 436 kts 88°
2026-05-07 21:43 33.60987 -115.25670 32913 ft 436 kts 88°
2026-05-07 21:44 33.60798 -115.18395 32911 ft 436 kts 88°
2026-05-07 21:44 33.60603 -115.11126 32909 ft 435 kts 88°
2026-05-07 21:45 33.60404 -115.03875 32912 ft 434 kts 88°
2026-05-07 21:45 33.60201 -114.96667 32913 ft 434 kts 88°
2026-05-07 21:46 33.59993 -114.89442 32915 ft 433 kts 88°
2026-05-07 21:46 33.59783 -114.82231 32793 ft 434 kts 88°
2026-05-07 21:47 33.59676 -114.78607 32509 ft 433 kts 88°
2026-05-07 21:47 33.59485 -114.74989 32254 ft 436 kts 94°
2026-05-07 21:47 33.58899 -114.71400 32022 ft 440 kts 98°
2026-05-07 21:47 33.58177 -114.67814 31776 ft 443 kts 100°
2026-05-07 21:48 33.57424 -114.64259 31534 ft 444 kts 100°
2026-05-07 21:48 33.56668 -114.60674 31286 ft 444 kts 99°
2026-05-07 21:48 33.55927 -114.57069 31039 ft 443 kts 99°
2026-05-07 21:48 33.55206 -114.53481 30798 ft 441 kts 99°
2026-05-07 21:49 33.54500 -114.49908 30568 ft 439 kts 99°
2026-05-07 21:49 33.53810 -114.46390 30324 ft 437 kts 99°
2026-05-07 21:49 33.53118 -114.42850 30078 ft 435 kts 99°
2026-05-07 21:49 33.52427 -114.39321 29827 ft 433 kts 99°
2026-05-07 21:50 33.51739 -114.35816 29550 ft 431 kts 99°
2026-05-07 21:50 33.51051 -114.32315 29148 ft 428 kts 99°
2026-05-07 21:50 33.50369 -114.28856 28572 ft 423 kts 99°
2026-05-07 21:50 33.49694 -114.25444 27964 ft 418 kts 99°
2026-05-07 21:51 33.49036 -114.22120 27377 ft 413 kts 99°
2026-05-07 21:51 33.48376 -114.18785 26785 ft 409 kts 99°
2026-05-07 21:51 33.47720 -114.15470 26204 ft 406 kts 99°
2026-05-07 21:51 33.47068 -114.12185 25610 ft 402 kts 99°
2026-05-07 21:52 33.46430 -114.08976 25058 ft 399 kts 99°
2026-05-07 21:52 33.45789 -114.05773 24775 ft 389 kts 99°
2026-05-07 21:52 33.45160 -114.02638 24516 ft 384 kts 99°
2026-05-07 21:52 33.44537 -113.99529 24303 ft 387 kts 99°
2026-05-07 21:53 33.43904 -113.96366 24069 ft 393 kts 99°
2026-05-07 21:53 33.43263 -113.93177 23826 ft 392 kts 99°
2026-05-07 21:53 33.42633 -113.90052 23581 ft 389 kts 99°
2026-05-07 21:53 33.42001 -113.86912 23302 ft 386 kts 99°
2026-05-07 21:54 33.41374 -113.83799 23027 ft 383 kts 99°
2026-05-07 21:54 33.40750 -113.80699 22755 ft 381 kts 99°
2026-05-07 21:54 33.40129 -113.77620 22506 ft 379 kts 99°
2026-05-07 21:54 33.39511 -113.74558 22264 ft 377 kts 99°
2026-05-07 21:55 33.38897 -113.71519 22006 ft 375 kts 99°
2026-05-07 21:55 33.38282 -113.68483 21773 ft 374 kts 99°
2026-05-07 21:55 33.37679 -113.65503 21532 ft 373 kts 99°
2026-05-07 21:55 33.37068 -113.62493 21286 ft 372 kts 99°
2026-05-07 21:56 33.36456 -113.59478 21039 ft 371 kts 99°
2026-05-07 21:56 33.35846 -113.56481 20798 ft 370 kts 99°
2026-05-07 21:56 33.35237 -113.53491 20553 ft 369 kts 99°
2026-05-07 21:56 33.34638 -113.50550 20306 ft 367 kts 99°
2026-05-07 21:57 33.34032 -113.47587 20061 ft 366 kts 99°
2026-05-07 21:57 33.33443 -113.44634 19818 ft 364 kts 98°
2026-05-07 21:57 33.32921 -113.41677 19579 ft 362 kts 98°
2026-05-07 21:57 33.32426 -113.38726 19332 ft 361 kts 97°
2026-05-07 21:58 33.31933 -113.35780 19088 ft 360 kts 97°
2026-05-07 21:58 33.31438 -113.32855 18850 ft 358 kts 98°
2026-05-07 21:58 33.30938 -113.29945 18609 ft 357 kts 98°
2026-05-07 21:58 33.30441 -113.27075 18380 ft 356 kts 98°
2026-05-07 21:59 33.29938 -113.24181 18140 ft 355 kts 98°
2026-05-07 21:59 33.29457 -113.21291 17873 ft 353 kts 97°
2026-05-07 21:59 33.29042 -113.18394 17626 ft 351 kts 96°
2026-05-07 21:59 33.28646 -113.15513 17389 ft 350 kts 96°
2026-05-07 22:00 33.28250 -113.12686 17232 ft 346 kts 96°
2026-05-07 22:00 33.27847 -113.09860 17024 ft 343 kts 96°
2026-05-07 22:00 33.27459 -113.07090 16797 ft 331 kts 94°
2026-05-07 22:00 33.27352 -113.04396 16587 ft 319 kts 86°
2026-05-07 22:01 33.27433 -113.01775 16392 ft 314 kts 84°
2026-05-07 22:01 33.27549 -112.99172 16201 ft 314 kts 84°
2026-05-07 22:01 33.27656 -112.96547 16002 ft 318 kts 85°
2026-05-07 22:01 33.27748 -112.93878 15802 ft 321 kts 85°
2026-05-07 22:02 33.27801 -112.92105 15656 ft 321 kts 85°
2026-05-07 22:02 33.27895 -112.88574 15378 ft 320 kts 85°
2026-05-07 22:02 33.27960 -112.85911 15171 ft 319 kts 85°
2026-05-07 22:02 33.28002 -112.84156 15026 ft 315 kts 86°
2026-05-07 22:03 33.28077 -112.81578 14815 ft 305 kts 84°
2026-05-07 22:03 33.28268 -112.79083 14614 ft 295 kts 81°
2026-05-07 22:03 33.28505 -112.76673 14428 ft 290 kts 81°
2026-05-07 22:03 33.28746 -112.74311 14238 ft 289 kts 81°
2026-05-07 22:04 33.28987 -112.71925 14061 ft 290 kts 81°
2026-05-07 22:04 33.29225 -112.69517 13876 ft 293 kts 81°
2026-05-07 22:04 33.29460 -112.67086 13684 ft 295 kts 81°
2026-05-07 22:04 33.29693 -112.64645 13477 ft 295 kts 81°
2026-05-07 22:05 33.29921 -112.62229 13257 ft 295 kts 81°
2026-05-07 22:05 33.30150 -112.59791 13058 ft 295 kts 81°
2026-05-07 22:05 33.30376 -112.57360 12854 ft 294 kts 81°
2026-05-07 22:05 33.30602 -112.54928 12666 ft 293 kts 81°
2026-05-07 22:06 33.30827 -112.52498 12453 ft 293 kts 81°
2026-05-07 22:06 33.31048 -112.50103 12271 ft 292 kts 81°
2026-05-07 22:06 33.31271 -112.47684 12079 ft 292 kts 81°
2026-05-07 22:06 33.31493 -112.45268 11886 ft 291 kts 81°
2026-05-07 22:07 33.31714 -112.42870 11693 ft 291 kts 81°
2026-05-07 22:07 33.31935 -112.40459 11509 ft 290 kts 81°
2026-05-07 22:07 33.32154 -112.38063 11318 ft 289 kts 81°
2026-05-07 22:07 33.32369 -112.35702 11131 ft 289 kts 81°
2026-05-07 22:08 33.32586 -112.33318 10953 ft 289 kts 81°
2026-05-07 22:08 33.32797 -112.31010 10758 ft 290 kts 81°
2026-05-07 22:08 33.33016 -112.28613 10566 ft 290 kts 81°
2026-05-07 22:08 33.33234 -112.26221 10367 ft 289 kts 82°
2026-05-07 22:09 33.33451 -112.23833 10185 ft 287 kts 82°
2026-05-07 22:09 33.33662 -112.21488 9989 ft 279 kts 82°
2026-05-07 22:09 33.33868 -112.19210 9798 ft 271 kts 82°
2026-05-07 22:09 33.34069 -112.16991 9606 ft 268 kts 82°
2026-05-07 22:10 33.34267 -112.14800 9411 ft 260 kts 82°
2026-05-07 22:10 33.34456 -112.12692 9244 ft 254 kts 82°
2026-05-07 22:10 33.34642 -112.10616 9072 ft 247 kts 82°
2026-05-07 22:10 33.34791 -112.08586 8857 ft 244 kts 86°
2026-05-07 22:11 33.34783 -112.06554 8605 ft 242 kts 89°
2026-05-07 22:11 33.34738 -112.04550 8369 ft 240 kts 90°
2026-05-07 22:11 33.34696 -112.02560 8137 ft 239 kts 90°
2026-05-07 22:11 33.34662 -112.00577 7867 ft 238 kts 90°
2026-05-07 22:12 33.34632 -111.98598 7574 ft 238 kts 90°
2026-05-07 22:12 33.34604 -111.96651 7309 ft 237 kts 90°
2026-05-07 22:12 33.34578 -111.94677 7034 ft 237 kts 90°
2026-05-07 22:12 33.34569 -111.92704 6769 ft 236 kts 88°
2026-05-07 22:13 33.34610 -111.90730 6522 ft 237 kts 88°
2026-05-07 22:13 33.34657 -111.88757 6234 ft 237 kts 88°
2026-05-07 22:13 33.34708 -111.86812 5965 ft 236 kts 88°
2026-05-07 22:13 33.34763 -111.84852 5694 ft 235 kts 88°
2026-05-07 22:14 33.34821 -111.82888 5431 ft 235 kts 88°
2026-05-07 22:14 33.34872 -111.80938 5172 ft 234 kts 88°
2026-05-07 22:14 33.34909 -111.78990 4905 ft 234 kts 88°
2026-05-07 22:14 33.35223 -111.77120 4614 ft 233 kts 61°
2026-05-07 22:15 33.36304 -111.75727 4359 ft 230 kts 28°
2026-05-07 22:15 33.37821 -111.75213 4107 ft 226 kts
2026-05-07 22:15 33.39364 -111.75218 4075 ft 220 kts 355°
2026-05-07 22:15 33.40839 -111.75647 4006 ft 220 kts 328°
2026-05-07 22:16 33.42084 -111.76675 4003 ft 217 kts 314°
2026-05-07 22:16 33.42725 -111.78232 4019 ft 207 kts 277°
2026-05-07 22:16 33.42856 -111.79909 4006 ft 197 kts 273°
2026-05-07 22:16 33.42901 -111.81487 3970 ft 183 kts 270°
2026-05-07 22:17 33.42905 -111.82954 3804 ft 175 kts 270°
2026-05-07 22:17 33.42903 -111.84405 3593 ft 174 kts 269°
2026-05-07 22:17 33.42900 -111.85846 3376 ft 171 kts 269°
2026-05-07 22:17 33.42898 -111.87265 3158 ft 170 kts 270°
2026-05-07 22:18 33.42896 -111.88687 2944 ft 171 kts 269°
2026-05-07 22:18 33.42891 -111.91509 2500 ft 163 kts 269°
2026-05-07 22:18 33.42892 -111.92812 2354 ft 150 kts 269°
2026-05-07 22:19 33.42889 -111.94028 2127 ft 147 kts 269°
2026-05-07 22:19 33.42882 -111.95233 1939 ft 146 kts 269°
2026-05-07 22:19 33.42884 -111.96442 1755 ft 145 kts 268°
2026-05-07 22:19 33.42875 -111.97668 1586 ft 150 kts 269°
2026-05-07 22:20 33.42890 -111.98924 1398 ft 151 kts 268°
2026-05-07 22:20 33.42884 -112.00170 1175 ft 150 kts 269°
2026-05-07 22:20 33.42885 -112.01346 1125 ft 119 kts 269°
2026-05-07 22:20 33.42885 -112.02080 1122 ft 59 kts 270°
2026-05-07 22:21 33.42885 -112.02387 1122 ft 23 kts 270°
2026-05-07 22:21 33.42930 -112.02512 1123 ft 11 kts 318°
2026-05-07 22:21 33.42990 -112.02499 1122 ft 10 kts 61°
2026-05-07 22:21 33.42996 -112.02420 1121 ft 9 kts 89°
2026-05-07 22:22 33.42995 -112.02340 1120 ft 11 kts 90°
2026-05-07 22:22 33.42995 -112.02247 1121 ft 12 kts 90°
2026-05-07 22:22 33.42996 -112.02149 1123 ft 12 kts 90°
2026-05-07 22:22 33.42995 -112.02042 1123 ft 13 kts 90°
2026-05-07 22:23 33.42995 -112.01933 1122 ft 13 kts 90°
2026-05-07 22:23 33.42995 -112.01826 1120 ft 13 kts 90°
2026-05-07 22:23 33.42995 -112.01705 1123 ft 16 kts 90°
2026-05-07 22:23 33.42995 -112.01561 1121 ft 19 kts 90°
2026-05-07 22:24 33.42995 -112.01403 1118 ft 19 kts 90°
2026-05-07 22:24 33.42995 -112.01245 1119 ft 19 kts 90°
2026-05-07 22:24 33.42995 -112.01091 1123 ft 18 kts 90°
2026-05-07 22:24 33.42995 -112.00944 1124 ft 17 kts 90°
2026-05-07 22:25 33.42995 -112.00801 1123 ft 17 kts 90°
2026-05-07 22:25 33.42995 -112.00664 1123 ft 16 kts 90°
2026-05-07 22:25 33.42995 -112.00531 1120 ft 16 kts 90°
2026-05-07 22:25 33.42995 -112.00404 1123 ft 15 kts 90°
2026-05-07 22:26 33.43019 -112.00329 1119 ft 9 kts 28°
2026-05-07 22:26 33.43079 -112.00321 1120 ft 9 kts
2026-05-07 22:26 33.43140 -112.00321 1122 ft 9 kts
2026-05-07 22:26 33.43192 -112.00288 1120 ft 9 kts 52°
2026-05-07 22:27 33.43213 -112.00210 1124 ft 10 kts 86°
2026-05-07 22:27 33.43214 -112.00125 1120 ft 10 kts 90°
2026-05-07 22:27 33.43235 -112.00056 1116 ft 9 kts 25°
2026-05-07 22:27 33.43282 -112.00016 1116 ft 9 kts 81°
2026-05-07 22:28 33.43283 -111.99937 1118 ft 11 kts 90°
2026-05-07 22:28 33.43283 -111.99835 1123 ft 14 kts 90°
2026-05-07 22:28 33.43283 -111.99709 1123 ft 16 kts 90°
2026-05-07 22:28 33.43283 -111.99581 1123 ft 15 kts 90°
2026-05-07 22:29 33.43283 -111.99486 1123 ft 9 kts 90°
2026-05-07 22:29 33.43284 -111.99409 1123 ft 9 kts 79°
2026-05-07 22:29 33.43313 -111.99389 1123 ft 3 kts 352°
2026-05-07 22:29 33.43336 -111.99393 1118 ft 3 kts 351°
2026-05-07 22:30 33.43349 -111.99395 1118 ft 0 kts 351°